Tracking 19146 objects as of 23-Apr-2018
HD Live streaming from Space Station
objects crossing your sky now

FENGYUN 1C DEB

Track FENGYUN 1C DEB now!
10-day predictions


NORAD ID: 31387
Int'l Code: 1999-025BST
Perigee: 683.2 km
Apogee: 1,046.2 km
Inclination: 99.1 °
Period: 102.1 minutes
Semi major axis: 7235 km
RCS: 0.0046 m2 (small)
Launch date: May 10, 1999
Source: People's Republic of China (PRC)
Launch site: Taiyaun Space Center, China (TSC)

Note: This is SATELLITE DEBRIS
aabbcc
Your satellite tracking list
Your tracking list is empty




NASA's NSSDC Master Catalog

Two Line Element Set (TLE):
1 31387U 99025BST 18112.14131109  .00000117  00000-0  68767-4 0  9997
2 31387  99.1099 234.0743 0250849  66.9219  54.0408 14.10534890570654
Source of the keplerian elements: AFSPC